Tracking 20626 objects as of 8-Apr-2020
HD Live streaming from Space Station
objects crossing your sky now

SL-12 R/B(2)

Track SL-12 R/B(2) now!


NORAD ID: 19094
Int'l Code: 1988-036E
Perigee: 35,466.3 km
Apogee: 35,650.9 km
Inclination: 13.4 °
Period: 1,424.1 minutes
Semi major axis: 41929 km
RCS: 2.2903 m2 (large)
Launch date: May 6, 1988
Source: Commonwealth of Independent States (former USSR) (CIS)
Launch site: TYURATAM MISSILE AND SPACE COMPLEX (TTMTR)

Note: This is a ROCKET BODY
aabbcc
Your satellite tracking list
Your tracking list is empty




NASA's NSSDC Master Catalog

Two Line Element Set (TLE):
1 19094U 88036E   20099.39595264 -.00000290 +00000-0 +00000-0 0  9993
2 19094 013.4332 340.9222 0022014 114.5331 177.4954 01.01116460098969
Source of the keplerian elements: AFSPC